[[{"header":{"parameterUnit":"m.s-1","parameterCategory":1,"la1":30.2991,"la2":30.254,"lo1":-89.0895,"lo2":-89.0444,"dx":0.0017,"dy":0.0017,"nx":28,"ny":28,"refTime":"2022-11-15T15:00:00:Z","depth":0,"parameterNumber":2,"parameterNumberName":"U-component_of_WINDS"},"data":[0,0,0,0,0,0,0,0,0,0,0,0,0,0,0,0,0,0,0,0,0,0,0,0,0,0,0,0,0,0,0,0,0,0,0,0,0,0,0,0,0,0,0,0,0,0,0,0,0,0,0,0,0,0,0,0,0,0,1.567,1.567,0,1.5653,1.5653,1.5652,1.5636,1.5635,1.5635,1.5635,1.5616,1.5616,1.5615,0,0,0,0,0,0,0,0,0,0,0,0,0,1.5688,1.5687,1.567,1.567,1.5669,1.5653,1.5653,1.5652,1.5636,1.5635,1.5635,1.5635,1.5616,1.5616,1.5615,0,0,0,0,0,0,0,0,0,0,0,0,0,1.5676,1.5687,1.567,1.5659,1.5658,1.5653,1.5653,1.5652,1.5636,1.5635,1.5635,1.5635,1.5616,1.5616,1.5615,1.5619,0,0,1.5614,1.5614,0,0,0,0,0,0,0,0,1.5677,1.5675,1.5661,1.566,1.5659,1.5646,1.5652,1.5641,1.5636,1.5644,1.5635,1.5635,1.5626,1.5625,1.5622,1.5618,1.5617,1.5614,1.5613,1.5613,1.5613,0,0,0,0,0,0,0,1.5678,1.5676,1.5663,1.5661,1.5659,1.5655,1.5653,1.565,1.5637,1.5643,1.5642,1.564,1.5625,1.5623,1.5622,1.5617,1.5614,1.5613,1.5613,1.5613,1.5616,1.5616,0,0,0,0,0,0,1.568,1.5677,1.5664,1.5663,1.5667,1.5655,1.5653,1.565,1.5637,1.5635,1.5641,1.564,1.5624,1.5622,1.5621,1.5625,1.5613,1.5613,1.5613,1.5616,1.5616,1.5616,0,0,0,0,0,0,1.5681,1.5679,1.5664,1.5669,1.5667,1.5655,1.5652,1.565,1.5647,1.5635,1.5633,1.564,1.5623,1.5622,1.562,1.5624,1.5613,1.5612,1.5615,1.5616,1.5616,1.5632,0,0,0,0,0,0,1.5681,1.5679,1.5681,1.567,1.5667,1.5664,1.5653,1.565,1.5647,1.5645,1.5634,1.5632,1.5623,1.5621,1.5619,1.5623,1.5612,1.5615,1.5615,1.5616,1.5631,1.5633,1.5635,0,0,0,0,0,1.5682,1.5685,1.5681,1.5679,1.5668,1.5664,1.5662,1.5652,1.5647,1.5648,1.5641,1.5632,1.5624,1.5621,1.5619,1.5622,1.5614,1.5615,1.5616,1.563,1.5633,1.5635,0,0,0,0,0,0,1.5696,1.5683,1.5678,1.5678,1.5672,1.5661,1.5662,1.5655,1.565,1.5649,1.5636,1.5634,1.5634,1.5628,1.5625,1.5626,1.5618,1.5619,1.5629,1.5632,1.5633,1.5634,1.5611,0,0,0,0,0,1.5699,1.5697,1.5686,1.5687,1.5684,1.5674,1.5672,1.5665,1.5658,1.5655,1.5647,1.564,1.5636,1.5634,1.5629,1.5631,1.5628,1.5633,1.5634,1.5636,1.5636,1.5637,1.5639,1.5619,1.5619,1.5619,0,0,1.5705,1.5698,1.5697,1.569,1.5684,1.5682,1.5672,1.567,1.5668,1.5654,1.5652,1.5647,1.5639,1.5639,1.5638,1.5634,1.5642,1.5637,1.5638,1.5638,1.5638,1.564,1.5642,1.562,1.5619,1.5619,0,0,1.5716,1.571,1.5711,1.5706,1.5699,1.5692,1.5692,1.5682,1.5678,1.5676,1.5666,1.5664,1.5657,1.5652,1.5649,1.566,1.5652,1.5659,1.5668,1.5669,1.567,1.5672,1.5675,1.5677,1.5659,1.5659,1.5659,0,1.5724,1.5721,1.5712,1.5711,1.5708,1.5697,1.5697,1.5693,1.5684,1.5682,1.5678,1.567,1.5664,1.5663,1.5666,1.5663,1.5663,1.5659,1.5671,1.5672,1.5673,1.5677,1.5678,1.566,1.566,1.566,1.566,0,1.5732,1.573,1.5731,1.5724,1.5721,1.5721,1.5712,1.571,1.5704,1.5698,1.5697,1.569,1.5684,1.5683,1.5677,1.5682,1.5679,1.5673,1.5665,1.5676,1.5679,1.568,1.5661,1.5661,1.5661,1.566,0,0,1.5748,1.5738,1.5738,1.5735,1.5727,1.5725,1.5725,1.572,1.5719,1.5714,1.5713,1.5709,1.5704,1.57,1.5693,1.5694,1.5704,1.5688,1.5688,1.5691,1.5709,1.5713,1.5715,1.5699,1.5699,1.5699,1.5709,0,1.5757,1.5756,1.5748,1.5749,1.5748,1.5738,1.5738,1.5733,1.5728,1.5726,1.572,1.5717,1.571,1.5708,1.5709,1.5702,1.5707,1.5702,1.5698,1.5698,1.5699,1.5716,1.572,1.573,1.571,1.5711,1.5711,0,1.5766,1.5763,1.5764,1.5757,1.5756,1.5756,1.5751,1.5749,1.5744,1.574,1.5737,1.573,1.5729,1.5723,1.5722,1.5718,1.5717,1.5713,1.5714,1.5712,1.5704,1.5714,1.5733,1.5734,1.5713,1.5712,1.5712,0,1.5778,1.5774,1.5774,1.5772,1.5763,1.5764,1.576,1.5755,1.5753,1.5749,1.5748,1.5744,1.5742,1.5739,1.5731,1.5727,1.5732,1.5724,1.5728,1.5728,1.5728,1.5728,1.5746,1.5729,1.5729,1.5729,1.5729,0,1.5787,1.5788,1.5779,1.5779,1.578,1.5772,1.5774,1.5769,1.5765,1.5764,1.5756,1.5755,1.5746,1.5744,1.5738,1.5739,1.5738,1.5735,1.5733,1.5735,1.5735,1.5733,1.5731,1.5729,1.5729,1.5729,1.5729,0,1.58,1.5794,1.5794,1.5787,1.5785,1.5786,1.578,1.578,1.5775,1.5774,1.5774,1.5766,1.5764,1.5757,1.5752,1.5748,1.575,1.5748,1.5752,1.5751,1.5756,1.5755,1.5771,1.5773,1.5756,1.5756,1.5756,0,1.5806,1.5807,1.5801,1.58,1.5797,1.5796,1.5794,1.5787,1.5786,1.5781,1.5781,1.5779,1.5776,1.5773,1.5767,1.5764,1.5761,1.5767,1.576,1.5762,1.576,1.576,1.576,1.5768,1.5768,1.5768,1.5768,0,1.5818,1.5815,1.5813,1.5811,1.5809,1.5807,1.5804,1.5804,1.5796,1.5795,1.5793,1.5791,1.5788,1.5785,1.5782,1.5778,1.5772,1.5771,1.5772,1.5773,1.5776,1.5774,1.5755,1.577,1.577,1.577,1.577,1.577,1.5827,1.5827,1.5823,1.5822,1.5819,1.5817,1.5817,1.5813,1.5811,1.5808,1.5804,1.5803,1.5799,1.5794,1.5791,1.579,1.5786,1.5787,1.5788,1.5788,1.5789,1.5777,1.5789,1.5789,1.5789,1.5789,1.5789,0,1.5837,1.5835,1.5834,1.583,1.583,1.5825,1.5822,1.5821,1.5821,1.5818,1.5816,1.5814,1.5813,1.5807,1.5805,1.5805,1.5802,1.5805,1.5804,1.5803,1.5792,1.5791,1.5807,1.5807,1.5807,1.5807,1.5807,1.5807,1.5843,1.5844,1.5841,1.5841,1.5838,1.5837,1.5836,1.5834,1.5832,1.583,1.5829,1.5826,1.5822,1.582,1.5818,1.5817,1.5816,1.5819,1.5817,1.5806,1.5804,1.5802,1.5802,1.5819,1.5819,1.5828,1.5828,1.5828]},{"header":{"parameterUnit":"m.s-1","parameterCategory":1,"la1":30.2991,"la2":30.254,"lo1":-89.0895,"lo2":-89.0444,"dx":0.0017,"dy":0.0017,"nx":28,"ny":28,"refTime":"2022-11-15T15:00:00:Z","depth":0,"parameterNumber":3,"parameterNumberName":"V-component_of_WINDS"},"data":[0,0,0,0,0,0,0,0,0,0,0,0,0,0,0,0,0,0,0,0,0,0,0,0,0,0,0,0,0,0,0,0,0,0,0,0,0,0,0,0,0,0,0,0,0,0,0,0,0,0,0,0,0,0,0,0,0,0,-6.9301,-6.9303,0,-6.9436,-6.9438,-6.9439,-6.938,-6.9377,-6.9373,-6.937,-6.9504,-6.9511,-6.9517,0,0,0,0,0,0,0,0,0,0,0,0,0,-6.8988,-6.8994,-6.9301,-6.9303,-6.9305,-6.9436,-6.9438,-6.944,-6.9381,-6.9377,-6.9373,-6.9369,-6.9502,-6.951,-6.9518,0,0,0,0,0,0,0,0,0,0,0,0,0,-6.9124,-6.8996,-6.9301,-6.9291,-6.9291,-6.9436,-6.9438,-6.944,-6.9381,-6.9376,-6.9371,-6.9367,-6.9499,-6.9509,-6.9519,-6.9679,0,0,-6.9549,-6.9554,0,0,0,0,0,0,0,0,-6.9116,-6.9135,-6.9291,-6.9292,-6.9293,-6.9386,-6.9377,-6.952,-6.9383,-6.9347,-6.937,-6.9364,-6.9469,-6.9481,-6.9517,-6.9686,-6.9691,-6.955,-6.9556,-6.9561,-6.9563,0,0,0,0,0,0,0,-6.9107,-6.9129,-6.9354,-6.9293,-6.9294,-6.9279,-6.9292,-6.9403,-6.9434,-6.935,-6.9346,-6.9363,-6.9468,-6.9507,-6.952,-6.9693,-6.955,-6.9559,-6.9565,-6.9569,-7.0,-7.0005,0,0,0,0,0,0,-6.9098,-6.9122,-6.935,-6.9358,-6.9191,-6.9288,-6.9304,-6.9361,-6.9433,-6.9439,-6.9367,-6.936,-6.9493,-6.9508,-6.9524,-6.9716,-6.956,-6.957,-6.9575,-6.9994,-7.0001,-7.0007,0,0,0,0,0,0,-6.9092,-6.9119,-6.9345,-6.9239,-6.9267,-6.9299,-6.9364,-6.9366,-6.9406,-6.9446,-6.945,-6.9402,-6.949,-6.951,-6.9641,-6.972,-6.9574,-6.9583,-6.9988,-6.9996,-7.0004,-7.0103,0,0,0,0,0,0,-6.9083,-6.9117,-6.9179,-6.9241,-6.9273,-6.9461,-6.9369,-6.9373,-6.9423,-6.9415,-6.9479,-6.9485,-6.9487,-6.9627,-6.9651,-6.9731,-6.9591,-6.9981,-6.9992,-7.0001,-7.0093,-7.0113,-7.0131,0,0,0,0,0,-6.9072,-6.9201,-6.9183,-6.9211,-6.9351,-6.9466,-6.9484,-6.9485,-6.943,-6.9492,-6.9518,-6.9483,-6.9708,-6.9641,-6.9668,-6.9752,-6.9976,-6.9989,-7.0001,-7.0084,-7.0109,-7.0131,0,0,0,0,0,0,-6.9146,-6.9209,-6.9189,-6.9342,-6.94,-6.9456,-6.9534,-6.9512,-6.9584,-6.9573,-6.957,-6.9585,-6.9721,-6.9749,-6.9674,-6.9911,-6.9833,-6.9852,-6.9887,-6.9912,-6.9931,-6.9921,-6.9599,0,0,0,0,0,-6.918,-6.927,-6.9319,-6.9449,-6.9479,-6.9502,-6.9552,-6.9548,-6.9606,-6.963,-6.9665,-6.9722,-6.9805,-6.986,-6.9939,-7.0096,-7.0109,-7.0167,-7.0187,-7.0202,-7.0218,-7.0303,-7.033,-7.0047,-7.0047,-7.0047,0,0,-6.9252,-6.9297,-6.9353,-6.9465,-6.9509,-6.96,-6.9523,-6.9623,-6.969,-6.9644,-6.9771,-6.9799,-6.9862,-7.0007,-7.0073,-7.0035,-7.0299,-7.0218,-7.023,-7.0238,-7.0319,-7.0345,-7.0369,-7.0056,-7.0054,-7.0053,0,0,-6.9429,-6.9473,-6.9586,-6.9632,-6.9699,-6.9714,-6.9741,-6.9802,-6.9819,-6.9946,-6.9914,-6.9993,-7.0137,-7.0183,-7.0225,-7.0421,-7.0391,-7.0446,-7.0546,-7.063,-7.0652,-7.0671,-7.0741,-7.0766,-7.0462,-7.0462,-7.0462,0,-6.9509,-6.9647,-6.9646,-6.975,-6.9799,-6.9764,-6.9878,-6.9922,-7.0011,-7.0046,-7.0003,-7.0183,-7.0223,-7.0378,-7.0426,-7.0461,-7.0492,-7.0439,-7.0649,-7.0669,-7.0687,-7.0753,-7.0779,-7.0468,-7.0468,-7.0467,-7.0466,0,-6.9741,-6.9837,-6.992,-7.001,-7.0069,-7.0177,-7.0192,-7.0251,-7.0242,-7.0261,-7.039,-7.0437,-7.0525,-7.0562,-7.0553,-7.0716,-7.0691,-7.0649,-7.057,-7.072,-7.0782,-7.0807,-7.0477,-7.0475,-7.0473,-7.0472,0,0,-6.9968,-7.0057,-7.0087,-7.0127,-7.02,-7.0273,-7.0379,-7.0466,-7.0517,-7.058,-7.0668,-7.0791,-7.0753,-7.0801,-7.0797,-7.087,-7.1021,-7.0819,-7.082,-7.0854,-7.1203,-7.1234,-7.1264,-7.1002,-7.1007,-7.1011,-7.1198,0,-7.015,-7.0338,-7.0341,-7.0512,-7.0601,-7.0569,-7.0661,-7.0714,-7.0735,-7.0811,-7.0833,-7.092,-7.0863,-7.0892,-7.0963,-7.0988,-7.1091,-7.0974,-7.1083,-7.1087,-7.1068,-7.1296,-7.1329,-7.1504,-7.1222,-7.1226,-7.1229,0,-7.0388,-7.046,-7.0641,-7.0701,-7.0738,-7.0821,-7.0901,-7.0976,-7.1035,-7.1045,-7.11,-7.1085,-7.1191,-7.1111,-7.1257,-7.1178,-7.1222,-7.1241,-7.1248,-7.1258,-7.1167,-7.1312,-7.1559,-7.1585,-7.1267,-7.1264,-7.1261,0,-7.0535,-7.0678,-7.0804,-7.0839,-7.0913,-7.0972,-7.1005,-7.106,-7.1112,-7.1182,-7.1215,-7.1296,-7.134,-7.1402,-7.1409,-7.135,-7.1556,-7.1476,-7.1566,-7.1566,-7.1611,-7.1608,-7.1869,-7.164,-7.164,-7.1639,-7.1639,0,-7.0738,-7.085,-7.0872,-7.0949,-7.1073,-7.1075,-7.1198,-7.1225,-7.1275,-7.1357,-7.1333,-7.141,-7.1414,-7.1493,-7.1499,-7.1619,-7.1639,-7.1649,-7.1649,-7.1651,-7.165,-7.168,-7.1668,-7.1646,-7.1645,-7.1643,-7.1642,0,-7.0923,-7.0943,-7.1078,-7.1137,-7.1154,-7.1243,-7.1292,-7.1366,-7.1384,-7.1488,-7.1512,-7.154,-7.1632,-7.1645,-7.1751,-7.1755,-7.1899,-7.1887,-7.188,-7.1878,-7.1967,-7.1959,-7.2256,-7.2295,-7.2042,-7.2044,-7.2046,0,-7.1052,-7.1137,-7.1205,-7.1259,-7.1296,-7.1383,-7.1436,-7.1441,-7.1498,-7.1573,-7.1637,-7.1727,-7.1798,-7.1945,-7.1974,-7.2055,-7.2044,-7.2143,-7.2056,-7.2056,-7.2045,-7.204,-7.2049,-7.216,-7.2162,-7.2165,-7.2166,0,-7.1277,-7.1283,-7.1362,-7.1445,-7.151,-7.1575,-7.1636,-7.1681,-7.1694,-7.1758,-7.1852,-7.1908,-7.2018,-7.2106,-7.2187,-7.2218,-7.2195,-7.2194,-7.2219,-7.2222,-7.2214,-7.2219,-7.1925,-7.2187,-7.2185,-7.2183,-7.2182,-7.2181,-7.1438,-7.1512,-7.1572,-7.1661,-7.1708,-7.1766,-7.1838,-7.1866,-7.1945,-7.2036,-7.2033,-7.2137,-7.2193,-7.2299,-7.2337,-7.2417,-7.2384,-7.2421,-7.243,-7.2439,-7.2448,-7.2202,-7.2431,-7.2431,-7.243,-7.243,-7.2429,0,-7.1662,-7.1699,-7.1781,-7.1868,-7.1938,-7.1911,-7.1978,-7.2037,-7.2129,-7.2185,-7.2256,-7.2364,-7.245,-7.2486,-7.257,-7.2626,-7.2618,-7.2648,-7.2644,-7.2652,-7.2472,-7.2442,-7.2654,-7.2654,-7.2654,-7.2654,-7.2654,-7.2654,-7.1787,-7.1911,-7.1924,-7.2071,-7.2107,-7.2209,-7.225,-7.2303,-7.2347,-7.2469,-7.2541,-7.2565,-7.2612,-7.27,-7.2777,-7.2785,-7.2816,-7.2852,-7.2856,-7.2687,-7.2664,-7.2643,-7.2614,-7.2859,-7.2859,-7.3028,-7.303,-7.3031]}]]